TimeEST,TemperatureF,Dew PointF,Humidity,Sea Level PressureIn,VisibilityMPH,Wind Direction,Wind SpeedMPH,Gust SpeedMPH,PrecipitationIn,Events,Conditions,WindDirDegrees,DateUTC
12:53 AM,78.1,-9999,N/A,29.85,10.0,South,11.5,-,N/A,,Overcast,170,2013-02-26 05:53:00
1:53 AM,78.1,-9999,N/A,29.83,10.0,South,12.7,-,N/A,,Clear,170,2013-02-26 06:53:00
2:53 AM,77.0,-9999,N/A,29.81,10.0,South,12.7,19.6,N/A,,Clear,170,2013-02-26 07:53:00
3:53 AM,77.0,-9999,N/A,29.80,10.0,South,16.1,21.9,N/A,,Clear,180,2013-02-26 08:53:00
4:53 AM,75.9,-9999,N/A,29.81,10.0,South,13.8,-,N/A,,Clear,180,2013-02-26 09:53:00
5:53 AM,75.9,71.6,86,29.81,10.0,South,15.0,23.0,N/A,,Mostly Cloudy,180,2013-02-26 10:53:00
6:53 AM,75.9,71.6,86,29.83,10.0,South,13.8,20.7,N/A,,Mostly Cloudy,170,2013-02-26 11:53:00
7:53 AM,77.0,71.6,83,29.85,10.0,South,13.8,19.6,N/A,,Mostly Cloudy,170,2013-02-26 12:53:00
8:53 AM,80.1,73.0,79,29.86,10.0,South,16.1,21.9,N/A,,Mostly Cloudy,170,2013-02-26 13:53:00
9:53 AM,80.1,72.0,76,29.88,10.0,South,12.7,20.7,N/A,,Mostly Cloudy,180,2013-02-26 14:53:00
10:53 AM,80.1,73.0,79,29.89,10.0,South,16.1,20.7,N/A,,Mostly Cloudy,170,2013-02-26 15:53:00
11:35 AM,82.4,73.4,74,29.89,10.0,South,15.0,21.9,0.00,Rain,Light Rain,170,2013-02-26 16:35:00
11:53 AM,81.0,72.0,74,29.90,10.0,South,13.8,-,0.00,,Mostly Cloudy,190,2013-02-26 16:53:00
12:53 PM,82.0,73.0,74,29.90,10.0,South,10.4,-,N/A,,Mostly Cloudy,190,2013-02-26 17:53:00
1:53 PM,82.0,73.0,74,29.88,10.0,South,10.4,-,N/A,,Mostly Cloudy,190,2013-02-26 18:53:00
2:53 PM,82.9,73.9,74,29.85,10.0,South,9.2,-,N/A,,Mostly Cloudy,190,2013-02-26 19:53:00
3:53 PM,82.9,73.0,72,29.85,10.0,South,10.4,-,N/A,,Mostly Cloudy,190,2013-02-26 20:53:00
4:53 PM,82.9,72.0,69,29.86,10.0,SW,8.1,-,N/A,,Mostly Cloudy,220,2013-02-26 21:53:00
5:53 PM,80.1,72.0,76,29.86,10.0,SW,6.9,-,N/A,,Mostly Cloudy,220,2013-02-26 22:53:00
6:53 PM,78.1,72.0,81,29.87,10.0,WSW,4.6,-,N/A,,Mostly Cloudy,240,2013-02-26 23:53:00
7:53 PM,78.1,72.0,81,29.90,10.0,SW,5.8,-,N/A,,Mostly Cloudy,230,2013-02-27 00:53:00
8:53 PM,78.1,72.0,81,29.91,10.0,SSW,4.6,-,N/A,,Mostly Cloudy,200,2013-02-27 01:53:00
9:53 PM,77.0,72.0,84,29.93,10.0,Calm,Calm,-,N/A,,Mostly Cloudy,0,2013-02-27 02:53:00
10:53 PM,78.1,73.0,84,29.93,10.0,South,3.5,-,N/A,,Overcast,180,2013-02-27 03:53:00
11:29 PM,78.8,71.6,78,29.93,10.0,South,4.6,-,N/A,,Overcast,180,2013-02-27 04:29:00
11:53 PM,78.1,73.0,84,29.92,10.0,SW,3.5,-,0.00,Rain,Light Rain,220,2013-02-27 04:53:00